Weather History for KP68 - October, 2012

Change the Weather History Date:

Monday, October 29, 2012

  Actual Average Record
Temperature  
Mean Temperature 51 °F 41 °F  
Max Temperature 70 °F 58 °F 77 °F (1968)
Min Temperature 32 °F 25 °F 5 °F (1991)
Degree Days  
Heating Degree Days 14 24  
Month to date heating degree days 447 535  
Since 1 July heating degree days 530 799  
Cooling Degree Days 0 0  
Month to date cooling degree days 0 0  
Year to date cooling degree days 529 288  
Growing Degree Days 1 (Base 50)    
Moisture  
Dew Point 23 °F    
Average Humidity 40    
Maximum Humidity 64    
Minimum Humidity 16    
Precipitation  
Precipitation 0.00 in 0.03 in 0.61 in (1998)
Month to date precipitation 0.20 0.68  
Year to date precipitation 5.67 7.55  
Sea Level Pressure  
Sea Level Pressure 30.13 in    
Wind  
Wind Speed 6 mph (SSW)    
Max Wind Speed 14 mph    
Max Gust Speed 16 mph    
T = Trace of Precipitation, MM = Missing Value Source: NWS Daily Summary

Daily Weather History Graph

Daily Weather History Graph

Search for Another Location

Airport or City:

Trip Planner

Search our weather history database for the weather conditions in past years. The results will help you decide how hot, cold, wet, or windy it might be!

Date:

Astronomy

Oct. 29, 2012 Rise Set
Actual Time 7:09 AM PDT 5:45 PM PDT
Civil Twilight 6:41 AM PDT 6:12 PM PDT
Nautical Twilight 6:10 AM PDT 6:44 PM PDT
Astronomical Twilight 5:38 AM PDT 7:15 PM PDT
Moon 5:39 PM PDT (10/29) 7:04 AM PDT (10/29)
Length of Visible Light 11h 31m
Length of Day
10h 35m
Full, 100% of the Moon is Illuminated
Oct 29
Full
Oct 29
Full
Nov 6
Last Quarter
Nov 13
New
Nov 20
First Quarter

Hourly Weather History & Observations

Time (PDT) Temp. Windchill Dew Point Humidity Pressure Visibility Wind Dir Wind Speed Gust Speed Precip Events Conditions
12:53 AM 37.9 °F 32.7 °F 24.1 °F 57% 30.09 in - SSW 6.9 mph - N/A   Unknown
1:53 AM 34.0 °F 28.8 °F 23.0 °F 64% 30.10 in - SSW 5.8 mph - N/A   Unknown
2:53 AM 33.1 °F 26.1 °F 21.9 °F 64% 30.10 in - South 8.1 mph - N/A   Unknown
3:53 AM 37.0 °F 32.4 °F 24.1 °F 59% 30.09 in - South 5.8 mph - N/A   Unknown
4:53 AM 37.9 °F 30.9 °F 24.1 °F 57% 30.09 in - SSW 10.4 mph - N/A   Unknown
5:53 AM 37.0 °F 31.6 °F 24.1 °F 59% 30.13 in - SSW 6.9 mph - N/A   Unknown
6:00 AM - - - N/A% - - North - - N/A   Unknown
6:53 AM 37.0 °F 29.8 °F 23.0 °F 57% 30.15 in - SSW 10.4 mph - N/A   Unknown
7:53 AM 37.9 °F 34.4 °F 24.1 °F 57% 30.21 in - SSW 4.6 mph - N/A   Unknown
8:53 AM 46.0 °F 41.0 °F 24.1 °F 42% 30.20 in - SSW 10.4 mph - N/A   Unknown
9:53 AM 54.0 °F - 26.1 °F 34% 30.19 in - SW 4.6 mph - N/A   Unknown
10:53 AM 60.1 °F - 27.0 °F 28% 30.17 in - Calm Calm - N/A   Unknown
11:53 AM 64.9 °F - 27.0 °F 24% 30.15 in - SW 10.4 mph - N/A   Unknown
12:53 PM 66.0 °F - 24.1 °F 20% 30.12 in - WSW 8.1 mph - N/A   Unknown
1:53 PM 68.0 °F - 24.1 °F 19% 30.11 in - West 6.9 mph - N/A   Unknown
2:53 PM 68.0 °F - 21.9 °F 17% 30.10 in - WSW 5.8 mph - N/A   Unknown
3:53 PM 69.1 °F - 21.9 °F 17% 30.08 in - Variable 3.5 mph - N/A   Unknown
4:53 PM 68.0 °F - 21.0 °F 17% 30.07 in - SSW 3.5 mph - N/A   Unknown
5:53 PM 61.0 °F - 21.9 °F 22% 30.10 in - Calm Calm - N/A   Unknown
6:53 PM 46.0 °F 43.1 °F 23.0 °F 40% 30.16 in - South 5.8 mph - N/A   Unknown
7:53 PM 45.0 °F 41.8 °F 23.0 °F 42% 30.17 in - WSW 5.8 mph - N/A   Unknown
8:53 PM 42.1 °F 39.2 °F 23.0 °F 47% 30.16 in - Variable 4.6 mph - N/A   Unknown
9:53 PM 39.9 °F 35.8 °F 21.9 °F 49% 30.16 in - SE 5.8 mph - N/A   Unknown
10:53 PM 37.0 °F 34.5 °F 21.9 °F 54% 30.14 in - SSW 3.5 mph - N/A   Unknown
11:53 PM 35.1 °F - 21.0 °F 57% 30.14 in - Calm Calm - N/A   Unknown